FENGYUN 1C DEB, 37907

Orbit data source: Space-Track

FENGYUN 1C DEB, 37907 is space debris in SSO originally from a launch on Mon, 10 May 1999 UTC launched from the Taiyaun Space Center, China (TSC). Fengyun 1C debris stems from the Chinese weather satellite Fengyun-1C, which was intentionally destroyed by a Chinese anti-satellite missile in 2007. This event dramatically increased the amount of space debris, with thousands of trackable fragments posing hazards to satellites and human spaceflight. The Fengyun 1C debris cloud has become a focal point in discussions about space sustainability and the need for international regulations to prevent the creation of new debris.

Loading next visibility...
Identifier
37907, 1999-025ENG
Orbit
SSO
Country
Flag of CNCN / PRC
Related business
Manufacturer
Unknown
Mission
Spacecraft
Bus & Motor
Unknown
Mass
Unknown
Launch date (UTC)
1999-05-10 (27 years ago)
Launch vehicle
Unknown
Launch site
Taiyaun Space Center, China (TSC)
Object type
Payload
Rocket body
Debris
Shape & HBR
Unknown shape, 0.1 m
Radar Cross Section
Small (<0.1 m²)

Expand to show TLE details & history
Last TLE update: 5 days ago

TLE from 5 days ago
0 FENGYUN 1C DEB
1 37907U 99025ENG 26249.58043247  .00002544  00000-0  10652-2 0  9998
2 37907  99.0868  16.8280 0060289 135.9724 224.6279 14.25992810870872
Epoch: 2026-09-06T13:55Z
TLE epoch observation values (Epoch: 2026-09-06T13:55:49.365Z)
Latitude
-0.00001°
Longitude
-177.80119°
Altitude
839.023 km
Speed
7.417 km/s
True Right ascension
01h 07m 18s
True Declination
0° 00' 00"
Sunlit
Object was in full shadow at epoch
Visualization orbit readout
Latitude
Unknown
Longitude
Unknown
Altitude
Unknown
Speed
Unknown
Apparent Right ascension
Unknown
Apparent Declination
Unknown
Sunlit
N/A
Visualization observer readout
Local Sidereal Time
08:23:53
Azimuth
Unknown
Elevation
Unknown
Doppler factor
Unknown
Orbital elements
Apogee altitude
845.616 km
Perigee altitude
759.035 km
Semi-major axis
7,180.463 km
Eccentricity
0.00603
Inclination
99.0868°
RAAN
16.828°
Arg. of periapsis
135.9724°
True anomaly
224.14517°
Mean anomaly
224.6279°
Eccentric anomaly
224.38627°
Mean motion
3.56709 °/min
Orbital period
100.92 mins
BSTAR
0.0010652
Loading maneuver chart data...
Computing Atmospheric mass density...
Loading historical data...
Loading historical data...
Loading historical data...
Loading historical data...
Loading historical data...
Loading historical data...
Loading historical data...

Documentation

Showing up to 5 results
|